Regional Weather Roundup
Issued by NWS

Home | Current Version | Previous Version | Graphics & Text | Print | Product List | Glossary On
Versions: 1 2 3 4 5 6 7 8 9 10 11 12 13 14 15 16 17 18 19 20 21 22 23 24 25 26 27
000
ASUS45 KCYS 170310
RWRWY

WYOMING REGIONAL WEATHER ROUNDUP
NATIONAL WEATHER SERVICE CHEYENNE WY
800 PM MST SAT DEC 16 2017

NOTE:  "FAIR" INDICATES FEW OR NO CLOUDS BELOW 12,000 FEET
WITH NO SIGNIFICANT WEATHER AND/OR OBSTRUCTIONS TO VISIBILITY.

WYZ001-170400-
YELLOWSTONE NATIONAL PARK

CITY           SKY/WX    TMP DP  RH WIND       PRES   REMARKS
LK YELLOWSTONE   N/A     13  11  92 CALM      29.95R
W YELLOWSTONE  NOT AVBL

$$
WYZ002>013-054>058-071-098>099-170400-
NORTHERN WYOMING

CITY           SKY/WX    TMP DP  RH WIND       PRES   REMARKS
JACKSON        FLURRIES  20  17  88 CALM      29.94R
CODY           CLOUDY    25  21  85 N9        30.00R WCI  15
GREYBULL       LGT SNOW  29  27  92 NW10      29.98R FOG     WCI  20
WORLAND        LGT SNOW  28  28 100 NW7       29.98R VSB 3/4 WCI  21
SHERIDAN       LGT SNOW  29  28  96 CALM      30.04S FOG
BUFFALO        LGT SNOW  27  22  81 W5        30.02R WCI  22
GILLETTE       LGT SNOW  27  26  96 N5        30.02R FOG     WCI  22
HULETT         CLOUDY    30  27  86 NE3       30.03R FOG
NEWCASTLE      LGT SNOW  30  28  93 SE5       30.00S WCI  25

$$
WYZ014>020-022>026-101>103-170400-
CENTRAL WYOMING

CITY           SKY/WX    TMP DP  RH WIND       PRES   REMARKS
BIG PINEY      CLOUDY    25  20  81 N5        29.87R WCI  19
PINEDALE       CLOUDY    25  23  93 NW8       29.87R WCI  16
DUBOIS         LGT SNOW  23  23 100 CALM      29.88R VSB 1
LANDER         LGT SNOW  27  26  96 NE9       29.91R VSB 1   WCI  18
RIVERTON       SNOW      26  25  96 E10       29.93R VSB 1/2 WCI  16
CASPER         LGT SNOW  25  22  88 NE13      29.94R FOG     WCI  14
DOUGLAS        CLOUDY    31  27  85 SE9       29.95R WCI  23

$$
WYZ021-027>030-104>119-170400-
SOUTHERN WYOMING

CITY           SKY/WX    TMP DP  RH WIND       PRES   REMARKS
EVANSTON       FLURRIES  23  22  96 N7        29.91R WCI  15
FORT BRIDGER   LGT SNOW  26  26 100 W10       29.91R WCI  16
ROCK SPRINGS   CLOUDY    29  24  82 E8        29.85R WCI  21
DIXON          FAIR      26  16  64 CALM      29.84R
RAWLINS        CLOUDY    28  20  71 NE13      29.84R WCI  17
SARATOGA       FAIR      23  16  74 E6        29.83S WCI  16
LARAMIE        FAIR      23  19  85 E9        29.84R WCI  13
CHEYENNE       CLOUDY    28  26  92 E13       29.89S WCI  17
TORRINGTON     CLOUDY    33  26  75 NE14      29.96S WCI  23
PINE BLUFFS    CLOUDY    30  28  93 NE13      29.93S WCI  20

$$




USA.gov is the U.S. government's official web portal to all federal, state and local government web resources and services.